West Palm Beach, FL

8:16 PM EST on February 10, 2016 (GMT -0500)
Palm Beach International

Weather History for KPBI - October, 2013

Change the Weather History Date:

Tuesday, October 8, 2013

  Actual Average Record
Temperature  
Mean Temperature 83 °F 80 °F  
Max Temperature 90 °F 86 °F 95 °F (1941)
Min Temperature 75 °F 73 °F 62 °F (1987)
Degree Days  
Heating Degree Days 0 0  
Month to date heating degree days 0 0  
Since 1 July heating degree days 0 0  
Cooling Degree Days 18 15  
Month to date cooling degree days 144 122  
Year to date cooling degree days 3517 3330  
Growing Degree Days 32 (Base 50)    
Moisture  
Dew Point 72 °F    
Average Humidity 73    
Maximum Humidity 94    
Minimum Humidity 52    
Precipitation  
Precipitation 0.00 in 0.19 in 1.86 in (1934)
Month to date precipitation 1.11 1.59  
Year to date precipitation 57.83 50.66  
Snow  
Snow 0.00 in - - ()
Month to date snowfall 0.0  
Since 1 July snowfall 0.0  
Since 1 September snowfall 0.0  
Snow Depth 0.00 in    
Sea Level Pressure  
Sea Level Pressure 29.88 in    
Wind  
Wind Speed 8 mph (WSW)    
Max Wind Speed 16 mph    
Max Gust Speed 23 mph    
Visibility 8 miles    
Events Fog    
T = Trace of Precipitation, MM = Missing Value Source: NWS Daily Summary

Daily Weather History Graph

Daily Weather History Graph

Search for Another Location

Airport or City:

Trip Planner

Search our weather history database for the weather conditions in past years. The results will help you decide how hot, cold, wet, or windy it might be!

Date:

Astronomy

Oct. 08, 2013 Rise Set
Actual Time 7:16 AM EDT 6:58 PM EDT
Civil Twilight 6:53 AM EDT 7:22 PM EDT
Nautical Twilight 6:26 AM EDT 7:49 PM EDT
Astronomical Twilight 5:59 AM EDT 8:15 PM EDT
Moon 10:48 AM EDT (10/8) 9:54 PM EDT (10/8)
Length of Visible Light 12h 29m
Length of Day
11h 42m
Waxing Crescent, 16% of the Moon is Illuminated
Oct 8
Waxing Crescent
Oct 11
First Quarter
Oct 18
Full
Oct 26
Last Quarter
Nov 3
New

Hourly Weather History & Observations

Time (EDT) Temp. Heat Index Dew Point Humidity Pressure Visibility Wind Dir Wind Speed Gust Speed Precip Events Conditions
12:53 AM 75.9 °F - 73.0 °F 91% 29.86 in 10.0 mi SW 4.6 mph - N/A   Scattered Clouds
1:53 AM 77.0 °F - 73.0 °F 88% 29.85 in 10.0 mi SSW 4.6 mph - N/A   Partly Cloudy
2:53 AM 77.0 °F - 73.0 °F 88% 29.86 in 10.0 mi SSW 6.9 mph - N/A   Partly Cloudy
3:53 AM 77.0 °F - 73.9 °F 90% 29.85 in 10.0 mi SSW 5.8 mph - N/A   Clear
4:53 AM 77.0 °F - 73.9 °F 90% 29.85 in 10.0 mi SW 5.8 mph - N/A   Clear
5:53 AM 77.0 °F - 73.9 °F 90% 29.86 in 10.0 mi SSW 4.6 mph - N/A   Clear
6:22 AM 77.0 °F - 73.4 °F 89% 29.86 in 10.0 mi SSW 5.8 mph - N/A   Partly Cloudy
6:53 AM 77.0 °F - 73.9 °F 90% 29.87 in 8.0 mi WSW 4.6 mph - N/A   Scattered Clouds
6:55 AM 77.0 °F - 73.4 °F 89% 29.87 in 2.5 mi WSW 4.6 mph - N/A   Mostly Cloudy
7:02 AM 77.0 °F - 75.2 °F 94% 29.87 in 0.5 mi WSW 4.6 mph - N/A   Mostly Cloudy
7:19 AM 77.0 °F - 75.2 °F 94% 29.87 in 0.2 mi WSW 5.8 mph - N/A Fog Fog
7:44 AM 77.0 °F - 75.2 °F 94% 29.88 in 1.0 mi SW 4.6 mph - N/A   Overcast
7:53 AM 77.0 °F - 75.0 °F 94% 29.88 in 1.5 mi SW 5.8 mph - N/A   Mostly Cloudy
7:59 AM 78.8 °F - 75.2 °F 89% 29.89 in 3.0 mi SW 4.6 mph - N/A   Scattered Clouds
8:53 AM 80.1 °F 85.1 °F 75.0 °F 85% 29.90 in 10.0 mi WSW 8.1 mph - N/A   Scattered Clouds
9:53 AM 82.0 °F 86.7 °F 72.0 °F 71% 29.91 in 10.0 mi WSW 8.1 mph - N/A   Scattered Clouds
10:04 AM 82.4 °F 87.2 °F 71.6 °F 70% 29.92 in 10.0 mi West 10.4 mph - N/A   Mostly Cloudy
10:44 AM 84.2 °F 89.6 °F 71.6 °F 66% 29.91 in 10.0 mi WSW 10.4 mph - N/A   Scattered Clouds
10:53 AM 84.0 °F 89.0 °F 71.1 °F 65% 29.91 in 10.0 mi WSW 11.5 mph - N/A   Scattered Clouds
11:53 AM 86.0 °F 92.2 °F 72.0 °F 63% 29.91 in 10.0 mi WSW 12.7 mph - N/A   Mostly Cloudy
12:53 PM 87.1 °F 92.8 °F 71.1 °F 59% 29.89 in 10.0 mi West 13.8 mph 19.6 mph N/A   Mostly Cloudy
1:53 PM 88.0 °F 94.7 °F 72.0 °F 59% 29.88 in 10.0 mi West 11.5 mph 23.0 mph N/A   Mostly Cloudy
2:53 PM 89.1 °F 95.0 °F 71.1 °F 55% 29.86 in 10.0 mi WSW 11.5 mph 17.3 mph N/A   Mostly Cloudy
3:53 PM 90.0 °F 96.4 °F 71.1 °F 54% 29.86 in 10.0 mi West 10.4 mph - N/A   Scattered Clouds
4:53 PM 89.1 °F 94.1 °F 70.0 °F 53% 29.86 in 10.0 mi West 10.4 mph - N/A   Mostly Cloudy
5:53 PM 88.0 °F 92.1 °F 69.1 °F 53% 29.86 in 10.0 mi West 9.2 mph - N/A   Scattered Clouds
6:53 PM 84.9 °F 88.2 °F 68.0 °F 57% 29.87 in 10.0 mi West 8.1 mph - N/A   Scattered Clouds
7:53 PM 81.0 °F 84.1 °F 69.1 °F 67% 29.88 in 10.0 mi West 6.9 mph - N/A   Scattered Clouds
8:53 PM 79.0 °F - 69.1 °F 72% 29.91 in 10.0 mi West 4.6 mph - N/A   Scattered Clouds
9:53 PM 80.1 °F 83.2 °F 70.0 °F 71% 29.92 in 10.0 mi West 9.2 mph - N/A   Partly Cloudy
10:53 PM 77.0 °F - 70.0 °F 79% 29.93 in 10.0 mi West 5.8 mph - N/A   Partly Cloudy
11:53 PM 77.0 °F - 69.1 °F 76% 29.92 in 10.0 mi West 6.9 mph - N/A   Scattered Clouds